User: anonymous   Login
Location: �chenoz-la-M�line
(47.6009°N, 6.1354°E)
Time: 13:50:38
(UTC+00:00)
Language:

Cosmos 2333 Rocket - Orbit

View from above orbital plane
View from above orbital plane
View from above satellite
View from above satellite

Ground track
Ground track

The orbit data is extracted from the following two-line orbital elements,

1 24298U 96051B   21101.87078872 -.00000165  00000-0 -63020-4 0  9997
2 24298  70.8358   1.3737 0018489 267.8462  92.0541 14.12456130268491
Epoch (UTC): 11 April 2021 20:53:56
Eccentricity: 0.0018489
inclination: 70.8358°
perigee height: 837 km
apogee height: 864 km
right ascension of ascending node: 1.3737°
argument of perigee: 267.8462°
revolutions per day: 14.12456130
mean anomaly at epoch: 92.0541°
orbit number at epoch: 26849

The dashed part of the orbit path shows where the satellite is in the earth's shadow,  

DLR